North Palm Beach, FL (33408)

7:50 PM EST on November 27, 2014 (GMT -0500)
New Haven, Abacoa | Change Station
CLOSE
Current Station
Personal Weather Station
Location: Jupiter, FL
Elevation: 26 ft
Nearby Weather Stations

Elev 26 ft 26.90 °N, 80.10 °W | Updated 19 seconds ago

Clear
Clear
60.6 °F
Feels Like 60.6 °F
N
0.0
Wind Variable Wind from SW
Gusts 0.0 mph

Today
High -- | Low -- °F
--% Chance of Precip.
Yesterday
High -- | Low -- °F
Precip. -- in
6:48 AM 5:26 PM
Waxing Crescent, 34% visible
Pressure 30.17 in
Visibility 10.0 miles
Clouds Few 25000 ft
Dew Point 50 °F
Humidity 69%
Rainfall 0.04 in
Snow Depth Not available.
UV 0 out of 12
Pollen 4.10 out of 12
Air Quality Not available.
Flu Activity Not available.
METAR KPBI 272353Z 29003KT 10SM FEW250 18/10 A3018 RMK AO2 SLP217 T01780100 10233 20167 51014

More Conditions Fewer Conditions

Pressure 30.17 in
Visibility 10.0 miles
Clouds Few 25000 ft
Dew Point 50 °F
Humidity 69%
Rainfall 0.04 in
Snow Depth Not available.
UV 0 out of 12
Pollen 4.10 out of 12
Air Quality Not available.
Flu Activity Not available.
METAR KPBI 272353Z 29003KT 10SM FEW250 18/10 A3018 RMK AO2 SLP217 T01780100 10233 20167 51014

More Conditions Fewer Conditions

10-Day Weather Forecast

Almanac

Astronomy

Nov. 27, 2014 Rise Set
Actual Time
Civil Twilight
Nautical Twilight
Astronomical Twilight
Moon
Length of Visible Light
Length of Day
Tomorrow will be .
, % of the Moon is Illuminated

Today's Extremes

State Highs State Lows

Community

WunderPhotos

Upload Photos

1,774,146 photos uploaded!

WunderBlogs® & News

Nearby

Air Quality

  Air Quality AQ Index Pollutant
Not available.

Snow Depth

Station Depth Elevation

Earthquake Activity

City Distance Mag. Time & Date
Minimum magnitude displayed is 2.5.

Coastal Water Temperatures

Place Temperature

Nearby Weather Stations